Location: Newark
(46.3167°N, 7.8500°E)
Time: 10:25:52
(UTC+00:00)

ISS - Visible Passes

Search period start: 26 February 2020 00:00
Search period end: 07 March 2020 00:00
Orbit: 415 x 423 km, 51.6° (Epoch: 27 February)

Date Brightness Start Highest point End Pass type
(mag) Time Alt. Az. Time Alt. Az. Time Alt. Az.
26 Feb -2.7 04:11:56 39° SE 04:11:58 39° SE 04:15:09 10° ENE visible
27 Feb -0.8 03:26:22 16° E 03:26:22 16° E 03:27:19 10° E visible
27 Feb -3.6 04:59:19 26° W 05:01:03 63° NNW 05:04:25 10° ENE visible
28 Feb -3.7 04:13:39 74° NE 04:13:39 74° NE 04:16:47 10° ENE visible
29 Feb -1.0 03:27:54 20° ENE 03:27:54 20° ENE 03:29:05 10° ENE visible
29 Feb -2.9 05:00:51 21° WNW 05:02:41 38° NNW 05:05:54 10° ENE visible
01 Mar -3.2 04:15:03 47° N 04:15:03 47° N 04:18:14 10° ENE visible
02 Mar -1.2 03:29:12 22° NE 03:29:12 22° NE 03:30:33 10° ENE visible
02 Mar -2.5 05:02:09 16° WNW 05:04:23 32° N 05:07:28 10° ENE visible
03 Mar -2.7 04:16:16 33° NNW 04:16:34 34° N 04:19:41 10° ENE visible
04 Mar -1.4 03:30:22 23° NE 03:30:22 23° NE 03:31:57 10° ENE visible
04 Mar -2.5 05:03:19 12° WNW 05:06:04 33° N 05:09:11 10° ENE visible
05 Mar -2.4 04:17:24 28° NNW 04:18:13 31° N 04:21:18 10° ENE visible
06 Mar -1.6 03:31:30 25° NE 03:31:30 25° NE 03:33:26 10° ENE visible
06 Mar -2.9 05:04:26 11° WNW 05:07:38 46° NNE 05:10:54 10° E visible
